TimeMST,TemperatureF,Dew PointF,Humidity,Sea Level PressureIn,VisibilityMPH,Wind Direction,Wind SpeedMPH,Gust SpeedMPH,PrecipitationIn,Events,Conditions,WindDirDegrees,DateUTC
12:53 AM,33.1,21.0,61,30.30,10.0,West,4.6,-,N/A,,Clear,270,2012-11-16 07:53:00
1:53 AM,30.9,21.0,67,30.29,10.0,Calm,Calm,-,N/A,,Clear,0,2012-11-16 08:53:00
2:53 AM,32.0,19.9,61,30.28,10.0,Calm,Calm,-,N/A,,Clear,0,2012-11-16 09:53:00
3:53 AM,32.0,21.0,64,30.27,10.0,South,3.5,-,N/A,,Clear,180,2012-11-16 10:53:00
4:53 AM,32.0,21.0,64,30.28,10.0,South,9.2,-,N/A,,Clear,180,2012-11-16 11:53:00
5:53 AM,32.0,21.0,64,30.30,10.0,South,8.1,-,N/A,,Clear,180,2012-11-16 12:53:00
6:53 AM,32.0,21.0,64,30.31,10.0,South,8.1,-,N/A,,Clear,170,2012-11-16 13:53:00
7:53 AM,37.0,23.0,57,30.31,10.0,South,8.1,-,N/A,,Clear,190,2012-11-16 14:53:00
8:53 AM,42.1,23.0,47,30.29,10.0,SSW,17.3,-,N/A,,Clear,210,2012-11-16 15:53:00
9:53 AM,46.9,19.0,33,30.27,10.0,SSW,21.9,27.6,N/A,,Clear,200,2012-11-16 16:53:00
10:53 AM,50.0,18.0,28,30.27,10.0,SSW,19.6,26.5,N/A,,Clear,200,2012-11-16 17:53:00
11:53 AM,52.0,17.1,25,30.19,10.0,SSW,21.9,29.9,N/A,,Clear,200,2012-11-16 18:53:00
12:53 PM,53.1,15.1,22,30.14,10.0,South,23.0,33.4,N/A,,Clear,190,2012-11-16 19:53:00
1:53 PM,53.1,19.0,26,30.13,10.0,South,25.3,31.1,N/A,,Clear,170,2012-11-16 20:53:00
2:53 PM,55.0,17.1,23,30.11,10.0,South,24.2,32.2,N/A,,Clear,190,2012-11-16 21:53:00
3:53 PM,54.0,18.0,24,30.12,10.0,South,21.9,-,N/A,,Clear,190,2012-11-16 22:53:00
4:53 PM,48.0,17.1,29,30.15,10.0,South,16.1,-,N/A,,Clear,180,2012-11-16 23:53:00
5:53 PM,42.1,16.0,35,30.19,10.0,SSE,10.4,-,N/A,,Clear,160,2012-11-17 00:53:00
6:53 PM,39.9,16.0,38,30.22,10.0,South,6.9,-,N/A,,Clear,170,2012-11-17 01:53:00
7:53 PM,37.0,16.0,42,30.21,10.0,South,17.3,-,N/A,,Clear,180,2012-11-17 02:53:00
8:53 PM,37.0,16.0,42,30.19,10.0,South,15.0,-,N/A,,Clear,190,2012-11-17 03:53:00
9:53 PM,35.1,16.0,46,30.17,10.0,South,13.8,-,N/A,,Clear,190,2012-11-17 04:53:00
10:53 PM,35.1,16.0,46,30.15,10.0,South,15.0,-,N/A,,Clear,180,2012-11-17 05:53:00
11:53 PM,34.0,16.0,48,30.15,10.0,South,11.5,-,N/A,,Clear,180,2012-11-17 06:53:00